Tracking 20724 objects as of 3-Jun-2020
HD Live streaming from Space Station
objects crossing your sky now

PEGASUS R/B

Track PEGASUS R/B now!
10-day predictions


NORAD ID: 22491
Int'l Code: 1993-009C
Perigee: 688.3 km
Apogee: 755.6 km
Inclination: 25.0 °
Period: 99.1 minutes
Semi major axis: 7092 km
RCS: 0.1679 m2 (medium)
Launch date: February 9, 1993
Source: United States (US)
Launch site: AIR FORCE EASTERN TEST RANGE (AFETR)

Note: This is a ROCKET BODY
aabbcc
Your satellite tracking list
Your tracking list is empty




NASA's NSSDC Master Catalog

Two Line Element Set (TLE):
1 22491U 93009C   20154.51613342 +.00000326 +00000-0 +29602-4 0  9990
2 22491 024.9764 222.9652 0047452 191.7103 168.2303 14.53330466448064
Source of the keplerian elements: AFSPC